Ashland, VA

5:31 AM EST on January 24, 2017 (GMT -0500)
Hanover County Municipal

Weather History for KOFP - November, 2012

Change the Weather History Date:

Thursday, November 1, 2012

  Actual Average Record
Temperature  
Mean Temperature 46 °F -  
Max Temperature 57 °F 65 °F 88 °F (1950)
Min Temperature 37 °F 42 °F 24 °F (1954)
Degree Days  
Heating Degree Days 19    
Moisture  
Dew Point 36 °F    
Average Humidity 65    
Maximum Humidity 100    
Minimum Humidity 45    
Precipitation  
Precipitation 0.00 in - - ()
Sea Level Pressure  
Sea Level Pressure 29.73 in    
Wind  
Wind Speed 4 mph (WSW)    
Max Wind Speed 10 mph    
Max Gust Speed -    
Visibility 10 miles    
Events      
Averages and records for this station are not official NWS values.
T = Trace of Precipitation, MM = Missing Value Source: NWS Daily Summary

Daily Weather History Graph

Daily Weather History Graph

Search for Another Location

Airport or City:

Trip Planner

Search our weather history database for the weather conditions in past years. The results will help you decide how hot, cold, wet, or windy it might be!

Date:

Astronomy

Nov. 01, 2012 Rise Set
Actual Time 7:35 AM EDT 6:10 PM EDT
Civil Twilight 7:08 AM EDT 6:37 PM EDT
Nautical Twilight 6:37 AM EDT 7:08 PM EDT
Astronomical Twilight 6:06 AM EDT 7:39 PM EDT
Moon 8:08 PM EDT (11/1) 10:04 AM EDT (11/1)
Length of Visible Light 11h 29m
Length of Day
10h 35m
Waning Gibbous, 93% of the Moon is Illuminated
Nov 1
Waning Gibbous
Nov 6
Last Quarter
Nov 13
New
Nov 20
First Quarter
Nov 28
Full

Hourly Weather History & Observations

Time (EDT) Temp. Windchill Dew Point Humidity Pressure Visibility Wind Dir Wind Speed Gust Speed Precip Events Conditions
12:54 AM 37.9 °F - 37.9 °F 100% 29.71 in 10.0 mi Calm Calm - N/A   Clear
1:54 AM 42.1 °F 39.2 °F 36.0 °F 79% 29.71 in 10.0 mi SW 4.6 mph - N/A   Clear
2:54 AM 42.1 °F - 36.0 °F 79% 29.70 in 10.0 mi Calm Calm - N/A   Clear
3:54 AM 43.0 °F - 36.0 °F 76% 29.70 in 10.0 mi Calm Calm - N/A   Mostly Cloudy
4:54 AM 43.0 °F 41.3 °F 37.0 °F 80% 29.70 in 10.0 mi SSW 3.5 mph - N/A   Overcast
5:54 AM 43.0 °F 41.3 °F 37.0 °F 80% 29.70 in 10.0 mi SSW 3.5 mph - N/A   Partly Cloudy
6:54 AM 43.0 °F 41.3 °F 37.0 °F 80% 29.70 in 10.0 mi SW 3.5 mph - N/A   Clear
7:54 AM 43.0 °F 41.3 °F 37.0 °F 80% 29.72 in 10.0 mi SSW 3.5 mph - N/A   Partly Cloudy
9:54 AM 50.0 °F - 37.0 °F 61% 29.74 in 10.0 mi WSW 8.1 mph - N/A   Clear
10:54 AM 51.1 °F - 36.0 °F 56% 29.75 in 10.0 mi Variable 6.9 mph - N/A   Partly Cloudy
11:54 AM 54.0 °F - 36.0 °F 51% 29.75 in 10.0 mi Variable 6.9 mph - N/A   Mostly Cloudy
1:54 PM 55.0 °F - 35.1 °F 47% 29.71 in 10.0 mi WSW 8.1 mph - N/A   Overcast
2:54 PM 55.0 °F - 34.0 °F 45% 29.70 in 10.0 mi West 9.2 mph - N/A   Overcast
3:54 PM 55.0 °F - 35.1 °F 47% 29.70 in 10.0 mi WNW 6.9 mph - N/A   Overcast
4:54 PM 54.0 °F - 35.1 °F 49% 29.71 in 10.0 mi WSW 5.8 mph - N/A   Mostly Cloudy
5:54 PM 52.0 °F - 36.0 °F 54% 29.73 in 10.0 mi WSW 6.9 mph - N/A   Mostly Cloudy
6:54 PM 51.1 °F - 36.0 °F 56% 29.74 in 10.0 mi WSW 4.6 mph - N/A   Clear
7:54 PM 50.0 °F - 36.0 °F 59% 29.75 in 10.0 mi WSW 4.6 mph - N/A   Clear
8:54 PM 50.0 °F - 37.0 °F 61% 29.76 in 10.0 mi WSW 5.8 mph - N/A   Overcast
9:54 PM 48.9 °F - 37.0 °F 64% 29.78 in 10.0 mi West 8.1 mph - N/A   Overcast
10:54 PM 48.9 °F - 34.0 °F 56% 29.80 in 10.0 mi WNW 10.4 mph - N/A   Overcast
11:54 PM 48.0 °F - 35.1 °F 61% 29.81 in 10.0 mi West 5.8 mph - N/A   Mostly Cloudy